EN

Hourly Weather Bartın

Today, 26 January, Tuesday

Time Temperature Precipitation Wind Pressure Humidity
00:00 +7°C° 0 mm 4 mps 758 mmHg 84%
01:00 +7°C° 0 mm 4 mps 758 mmHg 84%
02:00 +8°C° 0 mm 3 mps 758 mmHg 83%
03:00 +7°C° 0 mm 4 mps 758 mmHg 83%
04:00 +7°C° 0 mm 4 mps 758 mmHg 83%
05:00 +7°C° 0 mm 4 mps 758 mmHg 83%
06:00 +7°C° 0 mm 4 mps 758 mmHg 82%
07:00 +7°C° 0 mm 4 mps 758 mmHg 82%
08:00 +7°C° 0 mm 4 mps 758 mmHg 82%
09:00 +10°C° 0 mm 4 mps 757 mmHg 80%
10:00 +11°C° 0 mm 4 mps 757 mmHg 79%
11:00 +12°C° 0 mm 4 mps 757 mmHg 77%
12:00 +13°C° 0 mm 4 mps 757 mmHg 77%
13:00 +13°C° 0 mm 4 mps 756 mmHg 78%
14:00 +14°C° 0 mm 3 mps 756 mmHg 78%
15:00 +13°C° 0 mm 4 mps 756 mmHg 80%
16:00 +12°C° 0 mm 4 mps 756 mmHg 82%
17:00 +11°C° 0 mm 4 mps 756 mmHg 85%
18:00 +11°C° 0 mm 4 mps 755 mmHg 84%
19:00 +11°C° 0 mm 4 mps 755 mmHg 83%
20:00 +10°C° 0 mm 4 mps 755 mmHg 83%
21:00 +10°C° 0 mm 4 mps 755 mmHg 82%
22:00 +10°C° 0 mm 4 mps 754 mmHg 82%
23:00 +10°C° 0 mm 4 mps 754 mmHg 81%

Tomorrow, 27 January, Wednesday

Time Temperature Precipitation Wind Pressure Humidity
00:00 +10°C° 0 mm 4 mps 754 mmHg 80%
01:00 +11°C° 0 mm 4 mps 753 mmHg 79%
02:00 +11°C° 0 mm 4 mps 752 mmHg 78%
03:00 +10°C° 0 mm 5 mps 752 mmHg 78%
04:00 +10°C° 0 mm 5 mps 751 mmHg 77%
05:00 +10°C° 0 mm 5 mps 750 mmHg 76%
06:00 +10°C° 0 mm 5 mps 750 mmHg 75%
07:00 +10°C° 0 mm 5 mps 749 mmHg 73%
08:00 +10°C° 0 mm 6 mps 749 mmHg 72%
09:00 +10°C° 0 mm 6 mps 748 mmHg 70%
10:00 +12°C° 0 mm 5 mps 748 mmHg 68%
11:00 +13°C° 0 mm 5 mps 747 mmHg 66%
12:00 +14°C° 0 mm 5 mps 747 mmHg 62%
13:00 +14°C° 0 mm 6 mps 746 mmHg 59%
14:00 +15°C° 0 mm 6 mps 746 mmHg 56%
15:00 +14°C° 0 mm 5 mps 746 mmHg 62%
16:00 +12°C° 0 mm 4 mps 746 mmHg 69%
17:00 +11°C° 0 mm 4 mps 746 mmHg 76%
18:00 +10°C° 0.9 mm 4 mps 746 mmHg 82%
19:00 +8°C° 0.9 mm 4 mps 747 mmHg 87%
20:00 +7°C° 0.9 mm 5 mps 747 mmHg 93%
21:00 +7°C° 0.2 mm 5 mps 748 mmHg 93%
22:00 +6°C° 0.2 mm 5 mps 749 mmHg 93%
23:00 +6°C° 0.2 mm 5 mps 749 mmHg 92%

Day after tomorrow, 28 January, Thursday

Time Temperature Precipitation Wind Pressure Humidity
00:00 +4°C° 0.1 mm 6 mps 750 mmHg 93%
01:00 +3°C° 0.1 mm 6 mps 750 mmHg 93%
02:00 +3°C° 0.1 mm 7 mps 751 mmHg 93%
03:00 +2°C° 0.7 mm 7 mps 751 mmHg 93%
04:00 +1°C° 0.7 mm 6 mps 752 mmHg 93%
05:00 +1°C° 0.7 mm 6 mps 752 mmHg 92%
06:00 +1°C° 0.3 mm 6 mps 753 mmHg 89%
07:00 0°C° 0.3 mm 5 mps 753 mmHg 87%
08:00 0°C° 0.3 mm 5 mps 754 mmHg 84%
09:00 +1°C° 0 mm 5 mps 754 mmHg 78%
10:00 +3°C° 0 mm 5 mps 754 mmHg 72%
11:00 +4°C° 0 mm 6 mps 755 mmHg 67%
12:00 +4°C° 0 mm 6 mps 755 mmHg 68%
13:00 +4°C° 0 mm 6 mps 755 mmHg 69%
14:00 +4°C° 0 mm 6 mps 755 mmHg 71%
15:00 +3°C° 0.1 mm 6 mps 755 mmHg 74%
16:00 +2°C° 0.1 mm 6 mps 755 mmHg 78%
17:00 +2°C° 0.1 mm 5 mps 755 mmHg 81%
18:00 +1°C° 0 mm 5 mps 756 mmHg 83%
19:00 +1°C° 0 mm 4 mps 756 mmHg 84%
20:00 +1°C° 0 mm 4 mps 757 mmHg 85%
21:00 +1°C° 0 mm 4 mps 757 mmHg 86%
22:00 0°C° 0 mm 4 mps 757 mmHg 87%
23:00 +1°C° 0 mm 3 mps 757 mmHg 88%

29 January, Friday

Time Temperature Precipitation Wind Pressure Humidity
00:00 +1°C° 0 mm 3 mps 757 mmHg 87%
01:00 +1°C° 0 mm 3 mps 757 mmHg 86%
02:00 0°C° 0 mm 3 mps 757 mmHg 85%
03:00 -1°C° 0 mm 4 mps 757 mmHg 85%
04:00 -1°C° 0 mm 4 mps 757 mmHg 85%
05:00 -1°C° 0 mm 4 mps 757 mmHg 85%
06:00 0°C° 0 mm 4 mps 758 mmHg 84%
07:00 0°C° 0 mm 4 mps 758 mmHg 83%
08:00 0°C° 0 mm 4 mps 758 mmHg 82%
09:00 +1°C° 0 mm 4 mps 758 mmHg 74%
10:00 +4°C° 0 mm 4 mps 758 mmHg 66%
11:00 +6°C° 0 mm 4 mps 758 mmHg 58%
12:00 +6°C° 0 mm 4 mps 758 mmHg 56%
13:00 +7°C° 0 mm 5 mps 757 mmHg 53%
14:00 +7°C° 0 mm 5 mps 757 mmHg 50%
15:00 +6°C° 0 mm 4 mps 757 mmHg 55%
16:00 +5°C° 0 mm 4 mps 757 mmHg 60%
17:00 +4°C° 0 mm 3 mps 757 mmHg 65%
18:00 +4°C° 0 mm 3 mps 757 mmHg 67%
19:00 +3°C° 0 mm 3 mps 757 mmHg 68%
20:00 +3°C° 0 mm 4 mps 757 mmHg 70%
21:00 +3°C° 0 mm 4 mps 757 mmHg 69%
22:00 +3°C° 0 mm 4 mps 757 mmHg 69%
23:00 +2°C° 0 mm 5 mps 757 mmHg 68%

30 January, Saturday

Time Temperature Precipitation Wind Pressure Humidity
00:00 +2°C° 0 mm 5 mps 756 mmHg 68%
01:00 +2°C° 0 mm 5 mps 756 mmHg 67%
02:00 +1°C° 0 mm 5 mps 756 mmHg 67%
03:00 +2°C° 0 mm 5 mps 755 mmHg 67%
04:00 +2°C° 0 mm 5 mps 755 mmHg 66%
05:00 +2°C° 0 mm 5 mps 755 mmHg 66%
06:00 +2°C° 0 mm 5 mps 755 mmHg 66%
07:00 +3°C° 0 mm 5 mps 755 mmHg 66%
08:00 +3°C° 0 mm 5 mps 755 mmHg 66%
09:00 +6°C° 0.1 mm 4 mps 754 mmHg 65%
10:00 +7°C° 0.1 mm 4 mps 754 mmHg 63%
11:00 +8°C° 0.1 mm 4 mps 753 mmHg 62%
12:00 +10°C° 0 mm 3 mps 753 mmHg 62%
13:00 +10°C° 0 mm 3 mps 752 mmHg 63%
14:00 +10°C° 0 mm 3 mps 751 mmHg 64%
15:00 +9°C° 0.8 mm 2 mps 751 mmHg 72%
16:00 +8°C° 0.8 mm 2 mps 750 mmHg 80%
17:00 +7°C° 0.8 mm 2 mps 750 mmHg 88%
18:00 +7°C° 0.5 mm 2 mps 750 mmHg 89%
19:00 +7°C° 0.5 mm 2 mps 750 mmHg 90%
20:00 +6°C° 0.5 mm 2 mps 750 mmHg 90%
21:00 +6°C° 1.2 mm 2 mps 750 mmHg 92%
22:00 +6°C° 1.2 mm 2 mps 751 mmHg 94%
23:00 +7°C° 1.2 mm 3 mps 751 mmHg 96%

31 January, Sunday

Time Temperature Precipitation Wind Pressure Humidity
00:00 +7°C° 1.4 mm 3 mps 752 mmHg 96%
01:00 +6°C° 1.4 mm 4 mps 753 mmHg 97%
02:00 +6°C° 1.4 mm 5 mps 754 mmHg 97%
03:00 +6°C° 1.3 mm 5 mps 755 mmHg 96%
04:00 +6°C° 1.3 mm 5 mps 755 mmHg 95%
05:00 +6°C° 1.3 mm 5 mps 756 mmHg 94%
06:00 +6°C° 0.2 mm 4 mps 757 mmHg 93%
07:00 +6°C° 0.2 mm 4 mps 758 mmHg 93%
08:00 +7°C° 0.2 mm 3 mps 759 mmHg 92%
09:00 +8°C° 0 mm 3 mps 759 mmHg 86%
10:00 +9°C° 0 mm 3 mps 759 mmHg 79%
11:00 +10°C° 0 mm 3 mps 759 mmHg 73%
12:00 +12°C° 0 mm 2 mps 759 mmHg 69%
13:00 +12°C° 0 mm 2 mps 759 mmHg 65%
14:00 +13°C° 0 mm 1 mps 759 mmHg 61%
15:00 +12°C° 0 mm 1 mps 759 mmHg 68%
16:00 +9°C° 0 mm 2 mps 759 mmHg 74%
17:00 +8°C° 0 mm 2 mps 759 mmHg 81%
18:00 +8°C° 0 mm 2 mps 759 mmHg 80%
19:00 +7°C° 0 mm 3 mps 759 mmHg 79%
20:00 +7°C° 0 mm 3 mps 759 mmHg 78%
21:00 +7°C° 0 mm 3 mps 758 mmHg 76%
22:00 +7°C° 0 mm 3 mps 758 mmHg 74%
23:00 +7°C° 0 mm 3 mps 758 mmHg 73%
Show more

We Need Your Consent

Meteoprog and our Service Providers may store and access personal data such as cookies, device identifiers or other similar technologies on your device and process such data to personalise content and ads, as well as provide social media features and to analyse the traffic.

  • Store and/or access information on your device

    Cookies, device identifiers or other information can be stored or accessed on your device for the purposes indicated above.

  • Personalised ads and content, ad and content measurement, audience insights, and products development

    Ads and content can be personalised based on a profile. More data can be added to better personalise ads and content. Ad and content performance can be measured. Insights about the audience who saw the ads and content can be derived. Such data can be used to develop or improve user’s experience, systems and software.

By clicking ‘I Agree’ you will allow the use of indicated cookies, device identifiers, web beacons or other similar technologies. Your settings can be changed in the browser on your device.

For certain purposes, legitimate interests may be relied on, rather than consent. You can read more about this in our Privacy and Cookie Policy.